Location: Unspecified
(0.0000°N, 0.0000°E)
Time: 13:04:40
(UTC+00:00)

GAOFEN 9 - Visible Passes

Search period start: 25 January 2026 00:00
Search period end: 04 February 2026 00:00
Orbit: 603 x 640 km, 97.6° (Epoch: 25 January)

Date Brightness Start Highest point End Pass type
(mag) Time Alt. Az. Time Alt. Az. Time Alt. Az.
25 Jan ? 20:53:40 10° SSW 20:54:12 12° SW 20:54:12 12° SW visible
26 Jan ? 19:34:42 10° SE 19:34:50 11° SE 19:34:50 11° SE visible
27 Jan ? 19:51:50 10° SSE 19:52:39 15° SSE 19:52:39 15° SSE visible
28 Jan ? 20:09:19 10° S 20:10:27 18° S 20:10:27 18° S visible
29 Jan ? 20:27:07 10° S 20:28:15 17° SSW 20:28:15 17° SSW visible
30 Jan ? 20:45:16 10° SSW 20:46:03 14° SSW 20:46:03 14° SSW visible
1 Feb ? 19:43:57 10° SSE 19:44:24 13° SSE 19:44:24 13° SSE visible
2 Feb ? 20:01:17 10° SSE 20:02:11 16° SSE 20:02:11 16° SSE visible
3 Feb ? 20:18:55 10° S 20:19:56 17° S 20:19:56 17° S visible
